Location: Echad�a
(5.4881°N, 75.5994°W)
Time: 07:01:22
(UTC+00:00)

Daily predictions for brighter satellites

Satellite Brightness Start Highest point End
(mag) Time Altitude Azimuth Time Altitude Azimuth Time Altitude Azimuth
Cosmos 1452 Rocket 3.5 23:29:05 10° N 23:34:17 69° ENE 23:39:30 10° SSE
USA 267 3.6 23:30:21 10° NNE 23:36:52 76° NW 23:43:24 10° SW
H-2A ROCKET BODY 3.2 23:38:43 10° NNW 23:41:39 27° NE 23:49:21 10° E
Milstar 3 3.6 23:34:47 10° WNW 23:41:47 66° SSW 23:53:14 10° SE
Helios 1A Rocket 3.3 23:37:54 10° S 23:41:56 68° WSW 23:45:56 10° NNW
Meteor 2-3 Rocket 3.9 23:36:37 10° S 23:42:10 52° E 23:47:45 10° NNE
IRS-1C Rocket 4.4 23:37:35 10° S 23:42:52 76° WSW 23:48:07 10° NNW
Cosmos 1340 4.2 23:42:52 10° SSW 23:46:25 40° W 23:49:58 10° NNW
NOAA 11 4.4 23:41:25 10° S 23:46:50 78° WSW 23:52:14 10° NNW
Cosmos 2369 Rocket 2.2 23:41:18 10° N 23:46:57 75° ENE 23:52:38 10° SSE
H-2A R/B 3.5 23:45:12 10° ESE 23:48:41 18° ENE 23:52:05 10° NE
Cosmos 2263 4.4 23:44:06 10° N 23:49:40 51° ENE 23:55:12 10° SSE
CZ-2D R/B 3.2 23:45:57 10° SSE 23:49:41 62° ENE 23:53:25 10° N
Ariane H10+ 1.2 23:50:47 10° WSW 23:53:03 40° S 23:54:11 18° ESE
